TimeCDT,TemperatureF,Dew PointF,Humidity,Sea Level PressureIn,VisibilityMPH,Wind Direction,Wind SpeedMPH,Gust SpeedMPH,PrecipitationIn,Events,Conditions,WindDirDegrees,DateUTC
12:53 AM,61.0,48.9,64,29.68,10.0,South,8.1,-,N/A,,Clear,180,2012-10-21 05:53:00
1:53 AM,59.0,48.9,69,29.68,10.0,South,8.1,-,N/A,,Clear,170,2012-10-21 06:53:00
2:53 AM,55.9,48.9,77,29.68,10.0,South,5.8,-,N/A,,Clear,180,2012-10-21 07:53:00
3:53 AM,53.1,46.9,80,29.67,10.0,South,4.6,-,N/A,,Clear,180,2012-10-21 08:53:00
4:53 AM,52.0,46.9,83,29.67,10.0,South,4.6,-,N/A,,Clear,170,2012-10-21 09:53:00
5:53 AM,51.1,46.9,86,29.68,10.0,Calm,Calm,-,N/A,,Clear,0,2012-10-21 10:53:00
6:53 AM,53.1,48.9,86,29.69,9.0,Calm,Calm,-,N/A,,Clear,0,2012-10-21 11:53:00
7:53 AM,51.1,46.9,86,29.69,7.0,Calm,Calm,-,N/A,,Clear,0,2012-10-21 12:53:00
8:53 AM,55.9,50.0,80,29.70,7.0,Calm,Calm,-,N/A,,Clear,0,2012-10-21 13:53:00
9:05 AM,57.2,51.8,82,29.72,4.0,Calm,Calm,-,N/A,,Haze,0,2012-10-21 14:05:00
9:53 AM,62.1,57.9,86,29.71,5.0,SE,3.5,-,N/A,,Overcast,140,2012-10-21 14:53:00
10:53 AM,66.0,61.0,84,29.71,6.0,South,9.2,-,N/A,,Haze,180,2012-10-21 15:53:00
11:53 AM,68.0,61.0,78,29.71,7.0,SSE,11.5,-,N/A,,Overcast,150,2012-10-21 16:53:00
12:53 PM,73.0,62.1,68,29.68,8.0,SE,13.8,-,N/A,,Overcast,130,2012-10-21 17:53:00
1:28 PM,75.2,60.8,61,29.69,9.0,SSE,15.0,-,N/A,,Partly Cloudy,160,2012-10-21 18:28:00
1:53 PM,77.0,61.0,58,29.65,10.0,SE,13.8,-,N/A,,Clear,130,2012-10-21 18:53:00
2:53 PM,82.0,62.1,51,29.63,10.0,South,15.0,25.3,N/A,,Clear,170,2012-10-21 19:53:00
3:53 PM,84.0,62.1,47,29.61,10.0,SSE,17.3,24.2,N/A,,Clear,160,2012-10-21 20:53:00
4:53 PM,86.0,62.1,44,29.60,10.0,SSE,16.1,-,N/A,,Clear,150,2012-10-21 21:53:00
5:53 PM,84.0,60.1,44,29.61,10.0,SSE,15.0,-,N/A,,Clear,160,2012-10-21 22:53:00
6:53 PM,79.0,61.0,54,29.62,10.0,SE,8.1,-,N/A,,Clear,130,2012-10-21 23:53:00
7:53 PM,77.0,61.0,58,29.63,10.0,ESE,8.1,-,N/A,,Clear,120,2012-10-22 00:53:00
8:53 PM,75.0,62.1,64,29.64,10.0,SE,9.2,-,N/A,,Clear,130,2012-10-22 01:53:00
9:53 PM,75.0,64.0,69,29.64,10.0,SE,10.4,-,N/A,,Clear,140,2012-10-22 02:53:00
10:53 PM,73.9,64.9,73,29.64,10.0,SSE,11.5,-,N/A,,Clear,150,2012-10-22 03:53:00
11:53 PM,73.0,64.9,76,29.64,10.0,SSE,12.7,-,N/A,,Clear,160,2012-10-22 04:53:00